SMAP

Last updated on Mon Sep 21 2026 00:02:45 GMT+0000 (Coordinated Universal Time)

1 40376U 15003A 26263.53304775 .00000218 00000+0 51311-4 0 9997 2 40376 98.1318 269.2941 0001455 90.5841 269.5528 14.63373628621567
UTC large
Height (km)
Speed (km/s)
/
Latitude / Longitude
Inclination (degrees)
Orbital Period (minutes)
Azimuth
Elevation
Range (km)
Doppler Factor

Next 0 passes for location: London (51.5072 / 0.1276)

No passes found over London.
SMAP